User: anonymous   Login
Location: Oronoko Observatory
(41.9167°N, 86.3833°W)
Time: 20:17:09
(UTC-04:00)
Language:

PAYLOAD A - Orbit

View from above orbital plane
View from above orbital plane
View from above satellite
View from above satellite

Ground track
Ground track

The orbit data is extracted from the following two-line orbital elements,

1 27840U 03031A   16268.03880030 -.00000005  00000-0  11938-4 0  9995
2 27840  98.1985 271.1697 0097808 200.7373 158.9835 14.38863987695040
Epoch (UTC): 24 September 2016 00:55:52
Eccentricity: 0.0097808
inclination: 98.1985°
perigee height: 692 km
apogee height: 832 km
right ascension of ascending node: 271.1697°
argument of perigee: 200.7373°
revolutions per day: 14.38863987
mean anomaly at epoch: 158.9835°
orbit number at epoch: 69504

The dashed part of the orbit path shows where the satellite is in the earth's shadow,  

DLR